Regional Weather Roundup
Issued by NWS Kansas City/Pleasant Hill, MO

Home | Current Version | Previous Version | Graphics & Text | Print | Product List | Glossary Off
Versions: 1 2 3 4 5 6 7 8 9 10 11 12 13 14 15 16 17 18 19 20 21 22 23 24 25 26 27 28 29 30 31 32 33 34 35 36 37 38 39 40 41 42 43 44 45 46 47 48 49 50

458
ASUS43 KEAX 290610
RWREAX

WEATHER ROUNDUP FOR EASTERN KANSAS AND NORTHWEST MISSOURI
NATIONAL WEATHER SERVICE KANSAS CITY/PLEASANT HILL MO
100 AM CDT FRI JUL 29 2016

KSZ040-057-103>105-MOZ028-029-037-043-290700-
...KANSAS CITY METROPOLITAN AREA...

CITY           SKY/WX    TMP DP  RH WIND       PRES   REMARKS
K.C. INTL      CLOUDY    76  65  68 NE7       29.99R
6HR MIN TEMP:  75; 6HR MAX TEMP:  85;

K.C. DOWNTOWN  CLOUDY    79  65  62 NE9       29.96F
6HR MIN TEMP:  79; 6HR MAX TEMP:  88;

LEES SUMMIT    NOT AVBL
OLATHE - IXD   MOCLDY    70  69  97 N5        29.98F
6HR MIN TEMP:  70; 6HR MAX TEMP:  87; 6HR PCP:  0.18;

OLATHE - OJC   MOCLDY    70  69  97 N8        29.98F
6HR MIN TEMP:  69; 6HR MAX TEMP:  88; 6HR PCP:  0.10;

LAWRENCE       CLOUDY    69  68  96 NW9       30.00R

$$

MOZ001>008-011>017-020>025-030>033-038>040-044>046-053-054-290700-
...NORTHERN AND CENTRAL MISSOURI...

CITY           SKY/WX    TMP DP  RH WIND       PRES   REMARKS
ST. JOSEPH     CLOUDY    74  66  76 NE5       29.99S
6HR MIN TEMP:  73; 6HR MAX TEMP:  84;

MOSBY          CLOUDY    72  68  88 NW3       29.99R
WHITEMAN AFB   MOCLDY    74  72  95 E1        29.96F
6HR MIN TEMP:  73; 6HR MAX TEMP:  85;

CLINTON        LGT RAIN  72  68  88 W5        29.99R
SEDALIA        CLOUDY    75  72  90 E6        29.98F
6HR MIN TEMP:  74; 6HR MAX TEMP:  84;

WARSAW         NOT AVBL
CHILLICOTHE      N/A     70  66  87 CALM      29.99F
6HR MIN TEMP:  70; 6HR MAX TEMP:  87;

KIRKSVILLE     CLOUDY    64  62  93 NW5       29.99S
6HR MIN TEMP:  64; 6HR MAX TEMP:  81;


$$

MOZ041-047>049-056>058-063>065-088>090-097-290700-
...EASTERN AND SOUTHERN MISSOURI...

CITY           SKY/WX    TMP DP  RH WIND       PRES   REMARKS
ST. LOUIS INTL PTCLDY    78  70  76 NW5       29.94R
6HR MIN TEMP:  78; 6HR MAX TEMP:  87;

SPIRIT OF STL  PTCLDY    76  73  91 CALM      29.92S
COLUMBIA       CLEAR     72  70  93 NW5       29.97F
JEFFERSON CITY PTCLDY    71  70  96 CALM      29.96S
ROLLA          CLEAR     69  67  93 NW3       29.96S
OSAGE BEACH    CLEAR     72  71  97 CALM      29.98S
SPRINGFIELD    CLEAR     73  69  87 CALM      29.98F
JOPLIN         PTCLDY    76  70  82 N3        29.98S
WEST PLAINS    CLEAR     69  66  90 W5        29.99S

$$

IAZ060-094-KSZ022-034>040-054-083-096-NEZ052-066-093-290700-
...KANSAS...SOUTHEAST NEBRASKA AND IOWA...

CITY           SKY/WX    TMP DP  RH WIND       PRES   REMARKS
TOPEKA         CLOUDY    69  66  90 SW3       30.01R
6HR MIN TEMP:  69; 6HR MAX TEMP:  88; 6HR PCP:  0.13;

MANHATTAN      CLEAR     68  66  93 CALM      30.02S
EMPORIA        CLOUDY    69  67  93 W6        30.01R
CHANUTE        CLOUDY    73  66  78 CALM      30.00R
WICHITA        MOCLDY    73  68  84 NE7       30.00S
OMAHA          CLOUDY    70  65  84 NW5       30.02F
LINCOLN        CLOUDY    72  64  76 N3        30.04F
FALLS CITY     CLOUDY    71  67  87 SE3       30.00S
LAMONI         CLOUDY    67  64  90 N6        30.00S
DES MOINES     CLOUDY    70  65  84 N8        29.99S

$$





USA.gov is the U.S. government's official web portal to all federal, state and local government web resources and services.